Location: Wolf Lake
(46.8518°N, 80.6381°W)
Time: 18:59:40
(UTC-05:00)

ISS - Visible Passes

Search period start: 18 November 2019 00:00
Search period end: 28 November 2019 00:00
Orbit: 412 x 421 km, 51.6° (Epoch: 19 November)

Date Brightness Start Highest point End Pass type
(mag) Time Alt. Az. Time Alt. Az. Time Alt. Az.
20 Nov -1.1 18:40:44 10° S 18:40:56 11° SSE 18:40:56 11° SSE visible
21 Nov -0.8 19:27:23 10° SW 19:27:48 13° SW 19:27:48 13° SW visible
22 Nov -2.5 18:39:17 10° SSW 18:41:38 30° S 18:41:38 30° S visible
23 Nov -2.1 17:51:26 10° S 17:54:05 22° SE 17:55:23 17° ESE visible
23 Nov -1.1 19:27:11 10° WSW 19:28:18 19° WSW 19:28:18 19° WSW visible
24 Nov -3.8 18:38:46 10° WSW 18:41:58 74° S 18:41:58 74° S visible
25 Nov -3.4 17:50:28 10° SW 17:53:44 50° SSE 17:55:34 23° E visible
25 Nov -1.0 19:27:18 10° W 19:28:28 19° W 19:28:28 19° W visible
26 Nov -3.4 18:38:42 10° W 18:42:00 56° NNW 18:42:00 56° NNW visible
27 Nov -3.7 17:50:10 10° WSW 17:53:31 77° NNW 17:55:30 23° ENE visible
27 Nov -0.9 19:27:26 10° WNW 19:28:24 17° WNW 19:28:24 17° WNW visible
